Location: Unspecified
(0.0000°N, 0.0000°E)
Time: 21:26:24
(UTC+00:00)

N. Korean satellite - Pass Details

Date: 06 August 2021
Orbit: 449 x 498 km, 97.3° (Epoch: 25 September)

Event Time Altitude Azimuth Distance (km) Brightness Sun altitude
Rises 04:53:35 0° 11° (N) 2,461 10.5 -17.3°
Reaches altitude 10° 04:55:37 10° 12° (NNE) 1,585 9.5 -16.8°
Maximum altitude 04:59:00 88° 94° (E) 456 6.3 -16.0°
Drops below altitude 10° 05:02:23 10° 190° (S) 1,578 8.9 -15.2°
Enters shadow 05:02:29 - 190° (S) 1,618 8.9 -15.2°
